Mount Airy, NC

9:44 PM EST on December 14, 2019 (GMT -0500)
Mount Airy-Surry County

Weather History for KMWK - June, 2019

Change the Weather History Date:

Friday, June 14, 2019

  Actual Average (WUND) Record (WUND)
Temperature  
Mean Temperature 66 °F -  
Max Temperature 77 °F - - (-1)
Min Temperature 54 °F - - (-1)
Growing Degree Days 16 (Base 50)    
Moisture  
Dew Point 43 °F    
Average Humidity 43    
Maximum Humidity 68    
Minimum Humidity 23    
Precipitation  
Precipitation 0.00 in - - ()
Sea Level Pressure  
Sea Level Pressure 30.17 in    
Wind  
Wind Speed 4 mph ()    
Max Wind Speed 12 mph    
Max Gust Speed 16 mph    
Visibility 10.0 miles    
Events      
Averages and records for this station are not official NWS values.
T = Trace of Precipitation, MM = Missing Value Source: Averaged Metar Reports

Daily Weather History Graph

Daily Weather History Graph

Search for Another Location

Airport or City:

Astronomy

Jun. 14, 2019 Rise Set
Actual Time 6:03 AM EDT 8:41 PM EDT
Civil Twilight 5:33 AM EDT 9:11 PM EDT
Nautical Twilight 4:55 AM EDT 9:49 PM EDT
Astronomical Twilight 4:12 AM EDT 10:32 PM EDT
Moon 6:05 PM EDT (6/14) 4:14 AM EDT (6/14)
Length of Visible Light 15h 38m
Length of Day
14h 37m
Waxing Gibbous, 92% of the Moon is Illuminated
Jun 14
Waxing Gibbous
Jun 17
Full
Jun 25
Last Quarter
Jul 2
New
Jul 9
First Quarter

Hourly Weather History & Observations

Time (EDT) Temp. Dew Point Humidity Pressure Visibility Wind Dir Wind Speed Gust Speed Precip Events Conditions
12:00 AM 64.4 °F 43.0 °F 46% 30.07 in 10.0 mi WNW 6.9 mph - N/A   Clear
12:20 AM 63.7 °F 43.2 °F 47% 30.07 in 10.0 mi WNW 4.6 mph - N/A   Clear
12:40 AM 62.8 °F 43.7 °F 50% 30.08 in 10.0 mi NW 6.9 mph - N/A   Clear
1:00 AM 62.6 °F 43.9 °F 50% 30.08 in 10.0 mi WNW 5.8 mph - N/A   Clear
1:20 AM 61.7 °F 44.2 °F 53% 30.08 in 10.0 mi WNW 3.5 mph - N/A   Clear
1:40 AM 61.7 °F 44.2 °F 53% 30.08 in 10.0 mi West 3.5 mph - N/A   Clear
2:00 AM 60.8 °F 44.1 °F 54% 30.08 in 10.0 mi Calm Calm - N/A   Clear
2:20 AM 60.4 °F 43.7 °F 54% 30.09 in 10.0 mi WNW 3.5 mph - N/A   Clear
2:40 AM 60.8 °F 43.7 °F 53% 30.09 in 10.0 mi WNW 4.6 mph - N/A   Clear
3:00 AM 60.1 °F 43.7 °F 55% 30.09 in 10.0 mi WNW 3.5 mph - N/A   Clear
3:20 AM 59.2 °F 43.7 °F 57% 30.10 in 10.0 mi Calm Calm - N/A   Clear
3:40 AM 58.5 °F 43.7 °F 58% 30.10 in 10.0 mi Calm Calm - N/A   Clear
4:00 AM 57.4 °F 44.2 °F 62% 30.10 in 10.0 mi West 4.6 mph - N/A   Clear
4:20 AM 58.5 °F 43.0 °F 56% 30.11 in 10.0 mi Calm Calm - N/A   Clear
4:40 AM 57.7 °F 43.0 °F 58% 30.12 in 10.0 mi West 3.5 mph - N/A   Clear
5:00 AM 57.4 °F 43.0 °F 59% 30.12 in 10.0 mi West 3.5 mph - N/A   Clear
5:20 AM 57.2 °F 43.7 °F 61% 30.13 in 10.0 mi Calm Calm - N/A   Clear
5:40 AM 55.6 °F 44.1 °F 65% 30.13 in 10.0 mi Calm Calm - N/A   Clear
6:00 AM 54.7 °F 44.2 °F 68% 30.14 in 10.0 mi Calm Calm - N/A   Clear
6:20 AM 56.3 °F 43.7 °F 63% 30.15 in 10.0 mi West 3.5 mph - N/A   Clear
6:40 AM 57.0 °F 44.2 °F 62% 30.15 in 10.0 mi WNW 3.5 mph - N/A   Clear
7:00 AM 57.6 °F 44.4 °F 62% 30.16 in 10.0 mi Calm Calm - N/A   Clear
7:20 AM 58.6 °F 44.8 °F 60% 30.17 in 10.0 mi WNW 5.8 mph - N/A   Clear
7:40 AM 59.9 °F 44.8 °F 57% 30.17 in 10.0 mi West 5.8 mph - N/A   Clear
8:00 AM 60.3 °F 44.6 °F 56% 30.19 in 10.0 mi WNW 3.5 mph - N/A   Clear
8:20 AM 61.3 °F 44.6 °F 54% 30.19 in 10.0 mi WNW 5.8 mph - N/A   Clear
8:40 AM 62.6 °F 45.0 °F 52% 30.20 in 10.0 mi Calm Calm - N/A   Clear
9:00 AM 63.5 °F 41.9 °F 45% 30.22 in 10.0 mi West 5.8 mph - N/A   Clear
9:20 AM 64.8 °F 39.0 °F 39% 30.22 in 10.0 mi NNW 6.9 mph - N/A   Clear
9:40 AM 65.5 °F 37.6 °F 36% 30.22 in 10.0 mi NW 9.2 mph 16.1 mph N/A   Clear
10:00 AM 67.1 °F 40.5 °F 38% 30.23 in 10.0 mi NNW 4.6 mph - N/A   Clear
10:20 AM 67.3 °F 37.8 °F 34% 30.23 in 10.0 mi NW 11.5 mph - N/A   Clear
10:40 AM 67.8 °F 37.8 °F 33% 30.23 in 10.0 mi NNW 6.9 mph - N/A   Clear
11:00 AM 68.0 °F 37.9 °F 33% 30.23 in 10.0 mi North 6.9 mph - N/A   Clear
11:20 AM 69.8 °F 39.7 °F 33% 30.22 in 10.0 mi NW 5.8 mph - N/A   Clear
11:40 AM 70.7 °F 39.9 °F 33% 30.22 in 10.0 mi NNW 6.9 mph - N/A   Clear
12:00 PM 70.3 °F 39.0 °F 32% 30.22 in 10.0 mi NNW 9.2 mph 16.1 mph N/A   Clear
12:20 PM 71.8 °F 40.3 °F 32% 30.22 in 10.0 mi North 8.1 mph - N/A   Clear
12:40 PM 72.1 °F 39.2 °F 30% 30.22 in 10.0 mi Calm Calm - N/A   Clear
1:00 PM 73.8 °F 40.8 °F 30% 30.22 in 10.0 mi WNW 4.6 mph - N/A   Clear
1:20 PM 73.8 °F 40.6 °F 30% 30.22 in 10.0 mi NNW 5.8 mph - N/A   Clear
1:40 PM 73.6 °F 39.4 °F 29% 30.21 in 10.0 mi NNW 5.8 mph - N/A   Clear
2:00 PM 74.5 °F 39.0 °F 28% 30.20 in 10.0 mi WSW 4.6 mph - N/A   Clear
2:20 PM 74.8 °F 39.6 °F 28% 30.20 in 10.0 mi Calm Calm - N/A   Clear
2:40 PM 76.1 °F 41.5 °F 29% 30.19 in 10.0 mi North 4.6 mph - N/A   Clear
3:00 PM 75.9 °F 39.0 °F 26% 30.19 in 10.0 mi NW 4.6 mph - N/A   Clear
3:20 PM 75.6 °F 37.6 °F 25% 30.18 in 10.0 mi WSW 4.6 mph - N/A   Clear
3:40 PM 76.1 °F 36.9 °F 24% 30.18 in 10.0 mi Calm Calm - N/A   Clear
4:20 PM 76.8 °F 37.9 °F 25% 30.17 in 10.0 mi NW 5.8 mph - N/A   Clear
4:40 PM 77.4 °F 37.6 °F 24% 30.18 in 10.0 mi West 5.8 mph - N/A   Clear
5:00 PM 77.4 °F 38.8 °F 25% 30.18 in 10.0 mi NW 4.6 mph - N/A   Clear
5:20 PM 77.9 °F 37.0 °F 23% 30.17 in 10.0 mi Calm Calm - N/A   Clear
5:40 PM 77.7 °F 36.5 °F 23% 30.17 in 10.0 mi Calm Calm - N/A   Clear
6:00 PM 77.4 °F 37.6 °F 24% 30.16 in 10.0 mi SSW 3.5 mph - N/A   Clear
6:20 PM 77.4 °F 41.0 °F 27% 30.16 in 10.0 mi South 4.6 mph - N/A   Clear
6:40 PM 76.6 °F 41.4 °F 28% 30.16 in 10.0 mi South 4.6 mph - N/A   Clear
7:00 PM 76.1 °F 42.8 °F 30% 30.16 in 10.0 mi SSE 3.5 mph - N/A   Clear
7:40 PM 74.8 °F 44.6 °F 34% 30.17 in 10.0 mi Calm Calm - N/A   Clear
8:00 PM 73.6 °F 45.9 °F 37% 30.17 in 10.0 mi Calm Calm - N/A   Clear
8:20 PM 72.5 °F 47.1 °F 40% 30.18 in 10.0 mi Calm Calm - N/A   Clear
8:40 PM 70.7 °F 49.3 °F 47% 30.19 in 10.0 mi Calm Calm - N/A   Clear
9:00 PM 68.5 °F 52.2 °F 56% 30.19 in 10.0 mi Calm Calm - N/A   Clear
9:20 PM 68.0 °F 51.6 °F 56% 30.20 in 10.0 mi Calm Calm - N/A   Clear
9:40 PM 67.1 °F 52.0 °F 58% 30.20 in 10.0 mi Calm Calm - N/A   Clear
10:00 PM 66.6 °F 50.7 °F 57% 30.20 in 10.0 mi Calm Calm - N/A   Clear
10:20 PM 64.9 °F 51.8 °F 62% 30.21 in 10.0 mi Calm Calm - N/A   Clear